Location: Nelson
(41.2830°S, 173.2830°E)
Time: 06:31:33
(UTC+13:00)

Meteor 1-26 Rocket - Pass Details

Date: 27 October 2019
Orbit: 817 x 918 km, 81.3° (Epoch: 19 November)

Event Time Altitude Azimuth Distance (km) Brightness Sun altitude
Rises 22:03:06 0° 188° (S) 3,392 8.1 -20.8°
Reaches altitude 10° 22:05:31 10° 185° (S) 2,459 7.2 -21.1°
Maximum altitude 22:11:04 71° 101° (E) 892 4.1 -21.9°
Enters shadow 22:12:39 47° 33° (NNE) 1,106 4.3 -22.1°
